Regional Weather Roundup
Issued by NWS

Home | Current Version | Previous Version | Text Only | Print | Product List | Glossary On
Versions: 1 2 3 4 5 6 7 8 9 10 11 12 13 14 15 16 17 18 19 20 21 22 23 24 25 26 27 28 29 30 31 32 33 34 35 36 37 38 39 40 41 42 43 44 45 46 47 48 49 50
000
ASPQ40 PGUM 211012
RWRPQ
WEATHER ROUNDUP FOR THE MARIANAS AND MICRONESIA
NATIONAL WEATHER SERVICE TIYAN GU
800 PM CHST THU AUG 21 2014

GUZ001>004-211100-
MARIANA ISLANDS-

CITY           SKY/WX    TMP DP  RH WIND       PRES   REMARKS
GUAM AIRPORT   PTCLDY    81  75  83 CALM      29.84R
ANDERSEN AFB   PTCLDY    81  75  83 N5        29.85R
ROTA AIRPORT   PTCLDY    79  75  89 N3        29.84R
TINIAN AP      PTCLDY    79  75  89 CALM      29.81R
SAIPAN AP      CLEAR     81  75  83 CALM      29.83R

$$

PMZ161-211100-
REPUBLIC OF PALAU-

CITY           SKY/WX    TMP DP  RH WIND       PRES   REMARKS
KOROR AP       MOCLDY    84  81  89 CALM      29.84R HX  98
KOROR WSO      MOCLDY    84  77  79 W5        29.83R HX  94

$$

PMZ171>174-211100-
FEDERATED STATES OF MICRONESIA-

CITY           SKY/WX    TMP DP  RH WIND       PRES   REMARKS
YAP AIRPORT    CLOUDY    79  77  94 VRB2      29.82R
CHUUK AP       CLOUDY    79  77  94 VRB6      29.83F
POHNPEI AP     NOT AVBL
POHNPEI WSO    CLOUDY    79  75  89 SW5       29.89R
KOSRAE AP      NOT AVBL

$$

PMZ181-211100-
REPUBLIC OF THE MARSHALL ISLANDS-

CITY           SKY/WX    TMP DP  RH WIND       PRES   REMARKS
KWAJALEIN AP   CLEAR     82  72  69 CALM      29.90R
MAJURO AP      NOT AVBL
MAJURO WSO     PTCLDY    84  77  79 CALM      29.87R HX  94

$$




USA.gov is the U.S. government's official web portal to all federal, state and local government web resources and services.